Location: Krasnoyarskiy Pitomnik
(51.1333°N, 71.6167°E)
Time: 21:42:50
(UTC+00:00)

Vanguard 1 Rocket - All Passes

Search period start: 12 April 2024 00:00
Search period end: 22 April 2024 00:00
Orbit: 652 x 4220 km, 34.3° (Epoch: 11 April)

Date Brightness Start Highest point End Pass type
(mag) Time Alt. Az. Time Alt. Az. Time Alt. Az.
12 Apr - 14:20:46 10° SSE 14:23:50 13° SE 14:27:35 10° ESE daylight
12 Apr - 16:39:49 10° SW 16:47:21 32° SSE 17:00:11 10° ESE visible
12 Apr - 19:02:54 10° WSW 19:13:13 36° S 19:30:36 10° SE visible
12 Apr - 21:28:52 10° WSW 21:40:31 24° SSW 21:56:44 10° SSE visible
13 Apr - 15:29:56 10° SSW 15:35:48 24° SSE 15:44:55 10° ESE visible
13 Apr - 17:51:52 10° WSW 18:00:35 35° S 18:15:43 10° ESE visible
13 Apr - 20:16:20 10° WSW 20:27:16 29° SSW 20:44:05 10° SSE visible
13 Apr - 22:47:06 10° WSW 22:54:30 13° SW 23:03:07 10° SSW visible
14 Apr - 14:21:08 10° S 14:24:45 14° SE 14:29:23 10° ESE daylight
14 Apr - 16:41:17 10° SW 16:48:29 31° SSE 17:00:41 10° ESE visible
14 Apr - 19:04:38 10° WSW 19:14:18 32° S 19:30:15 10° SE visible
14 Apr - 21:31:30 10° WSW 21:41:22 19° SSW 21:54:29 10° S visible
15 Apr - 15:31:12 10° SSW 15:36:54 25° SSE 15:45:47 10° ESE visible
15 Apr - 17:53:31 10° WSW 18:01:45 32° S 18:15:46 10° SE visible
15 Apr - 20:18:27 10° WSW 20:28:17 24° SSW 20:42:47 10° SSE visible
16 Apr - 14:21:55 10° S 14:25:46 16° SSE 14:30:50 10° ESE daylight
16 Apr - 16:42:51 10° SW 16:49:40 30° S 17:01:07 10° ESE visible
16 Apr - 19:06:32 10° WSW 19:15:26 27° SSW 19:29:37 10° SSE visible
16 Apr - 21:35:09 10° WSW 21:42:16 14° SW 21:51:00 10° S visible
17 Apr - 15:32:35 10° SW 15:38:04 25° SSE 15:46:33 10° ESE visible
17 Apr - 17:55:17 10° WSW 18:02:58 29° S 18:15:39 10° SE visible
17 Apr - 20:21:00 10° WSW 20:29:20 19° SSW 20:40:54 10° S visible
18 Apr - 14:22:58 10° SSW 14:26:52 17° SSE 14:32:06 10° ESE daylight
18 Apr - 16:44:30 10° SW 16:50:55 28° S 17:01:26 10° SE visible
18 Apr - 19:08:40 10° WSW 19:16:37 23° SSW 19:28:37 10° SSE visible
19 Apr - 15:34:06 10° SW 15:39:18 24° SSE 15:47:15 10° ESE visible
19 Apr - 17:57:12 10° WSW 18:04:13 25° S 18:15:19 10° SE visible
19 Apr - 20:24:28 10° SW 20:30:25 14° SSW 20:37:55 10° S night (unlit)
20 Apr - 14:24:13 10° SSW 14:28:02 18° SSE 14:33:13 10° ESE daylight
20 Apr - 16:46:15 10° SW 16:52:13 25° S 17:01:36 10° SE visible
20 Apr - 19:11:11 10° WSW 19:17:49 18° SSW 19:27:05 10° SSE visible
21 Apr - 13:15:50 10° SSE 13:17:03 11° SSE 13:18:22 10° SE daylight
21 Apr - 15:35:44 10° SW 15:40:36 22° S 15:47:50 10° SE visible
21 Apr - 17:59:20 10° WSW 18:05:31 20° SSW 18:14:39 10° SSE visible
